This demonstration page uses our WeatherBlox Daily Observations layout. Learn more.

38.89511, -77.03637

Hourly Observations for October 21, 2015

Temp ( °F °C ) Dew Point ( °F °C ) Humidity (%) Winds ( mph kmh ) Pressure ( in mb ) Visibility ( mi km ) Precip ( " mm )
12:52 am 00:52 Mostly Clear 52 11.1 47 8.3 83 83 SSW 3 6 30.29 1026 10 16.0934 0 0
1:52 am 01:52 Mostly Clear 53 11.7 47 8.3 80 80 SSW 3 6 30.29 1026 10 16.0934 0 0
2:52 am 02:52 Mostly Clear 50 10 46 7.8 86 86 SSW 6 9 30.29 1026 7 11.26538 0 0
3:52 am 03:52 Clear 49 9.4 45 7.2 86 86 SSW 6 9 30.29 1026 10 16.0934 0 0
4:52 am 04:52 Mostly Clear 50 10 45 7.2 83 83 SW 3 6 30.3 1026 10 16.0934 0 0
5:52 am 05:52 Partly Cloudy 50 10 45 7.2 83 83 SW 3 6 30.32 1027 10 16.0934 0 0
6:52 am 06:52 Mostly Cloudy 49 9.4 45 7.2 86 86 Calm 30.33 1027 10 16.0934 0 0
7:52 am 07:52 Mostly Cloudy 49 9.4 45 7.2 86 86 SW 5 7 30.33 1027 10 16.0934 0 0
8:52 am 08:52 Mostly Cloudy 51 10.6 47 8.3 86 86 Calm 30.35 1028 10 16.0934 0 0
9:52 am 09:52 Mostly Cloudy 54 12.2 48 8.9 80 80 S 7 11 30.37 1028 10 16.0934 0 0
10:52 am 10:52 Partly Cloudy 58 14.4 49 9.4 72 72 S 7 11 30.35 1028 10 16.0934 0 0
11:52 am 11:52 Partly Cloudy 63 17.2 49 9.4 60 60 SSE 5 7 30.34 1028 10 16.0934 0 0
12:52 pm 12:52 Partly Cloudy 67 19.4 49 9.4 53 53 SSE 3 6 30.32 1027 10 16.0934 0 0
1:52 pm 13:52 Partly Cloudy 70 21.1 45 7.2 41 41 Calm 30.3 1026 10 16.0934 0 0
2:52 pm 14:52 Partly Cloudy 73 22.8 48 8.9 41 41 S 6 9 30.28 1026 10 16.0934 0 0
3:52 pm 15:52 Mostly Cloudy 73 22.8 46 7.8 38 38 S 8 13 30.27 1025 10 16.0934 0 0
4:52 pm 16:52 Partly Cloudy 72 22.2 47 8.3 41 41 S 6 9 30.27 1025 10 16.0934 0 0
5:52 pm 17:52 Partly Cloudy 68 20 50 10 53 53 S 6 9 30.27 1025 10 16.0934 0 0
6:52 pm 18:52 Partly Cloudy 65 18.3 51 10.6 61 61 S 7 11 30.28 1025 10 16.0934 0 0
7:52 pm 19:52 Mostly Cloudy 62 16.7 53 11.7 73 73 S 6 9 30.29 1026 10 16.0934 0 0
8:52 pm 20:52 Mostly Clear 60 15.6 54 12.2 80 80 S 5 7 30.29 1026 10 16.0934 0 0
9:52 pm 21:52 Mostly Clear 58 14.4 52 11.1 81 81 S 5 7 30.29 1026 10 16.0934 0 0
10:52 pm 22:52 Mostly Clear 58 14.4 50 10 75 75 SSW 6 9 30.29 1026 10 16.0934 0 0
11:52 pm 23:52 Clear 56 13.3 50 10 81 81 S 5 7 30.28 1025 10 16.0934 0 0

Powered by AerisWeather